Location: New Canada
(47.1017°N, 68.5042°W)
Time: 07:20:08
(UTC+00:00)

EO-79 - Pass Details

Date: 08 April 2023
Orbit: 578 x 593 km, 98.0° (Epoch: 03 June)

Event Time Altitude Azimuth Distance (km) Brightness Sun altitude
Rises 08:18:46 0° 356° (N) 2,823 ? -16.8°
Reaches altitude 10° 08:21:53 10° 330° (NNW) 1,912 ? -16.4°
Maximum altitude 08:23:56 14° 301° (WNW) 1,687 ? -16.1°
Enters shadow 08:24:15 13° 295° (WNW) 1,692 ? -16.0°
